Weather History for Arlington, WA

Change the Weather History Date:

Wednesday, January 2, 2013

  Actual Average Record
Temperature  
Mean Temperature 34 °F -  
Max Temperature 46 °F 36 °F 57 °F (2003)
Min Temperature 23 °F 19 °F 15 °F (1978)
Degree Days  
Heating Degree Days 30    
Moisture  
Dew Point 25 °F    
Average Humidity 81    
Maximum Humidity 100    
Minimum Humidity 43    
Precipitation  
Precipitation 0.00 in - - ()
Sea Level Pressure  
Sea Level Pressure 30.30 in    
Wind  
Wind Speed 1 mph (ENE)    
Max Wind Speed 12 mph    
Max Gust Speed -    
Visibility 7 miles    
Events      
Averages and records for this station are not official NWS values.
T = Trace of Precipitation, MM = Missing Value Source: NWS Daily Summary

Daily Weather History Graph

Daily Weather History Graph

Search for Another Location

Airport:

Trip Planner

Search our weather history database for the weather conditions in past years. The results will help you decide how hot, cold, wet, or windy it might be!

Date:

Astronomy

Jan. 02, 2013 Rise Set
Actual Time 7:59 AM PST 4:26 PM PST
Civil Twilight 7:22 AM PST 5:03 PM PST
Nautical Twilight 6:43 AM PST 5:42 PM PST
Astronomical Twilight 6:05 AM PST 6:20 PM PST
Moon 10:33 PM PST (1/2) 10:17 AM PST (1/2)
Length of Visible Light 9h 40m
Length of Day
8h 27m
Waning Gibbous, 74% of the Moon is Illuminated
Jan 2
Waning Gibbous
Jan 4
Last Quarter
Jan 11
New
Jan 18
First Quarter
Jan 26
Full

Hourly Weather History & Observations

Time (PST) Temp. Windchill Dew Point Humidity Pressure Visibility Wind Dir Wind Speed Gust Speed Precip Events Conditions
12:15 AM 26.6 °F - 23.0 °F 86% 30.38 in 0.5 mi Calm Calm - N/A   Mostly Cloudy
12:35 AM 26.6 °F - 24.8 °F 93% 30.38 in 0.5 mi Calm Calm - N/A   Mostly Cloudy
12:55 AM 24.8 °F - 23.0 °F 93% 30.38 in 5.0 mi Calm Calm - N/A   Partly Cloudy
1:15 AM 24.8 °F - 21.2 °F 86% 30.37 in 0.8 mi Calm Calm - N/A   Unknown
1:35 AM 24.8 °F - 21.2 °F 86% 30.36 in 6.0 mi Calm Calm - N/A   Clear
1:55 AM 24.8 °F - 24.8 °F 100% 30.36 in 0.8 mi Calm Calm - N/A   Overcast
2:15 AM 24.8 °F - 23.0 °F 93% 30.36 in 0.5 mi Calm Calm - N/A   Overcast
2:35 AM 24.8 °F - 23.0 °F 93% 30.35 in 0.5 mi Calm Calm - N/A   Mostly Cloudy
2:55 AM 24.8 °F - 21.2 °F 86% 30.35 in 0.5 mi Calm Calm - N/A   Overcast
3:15 AM 24.8 °F - 21.2 °F 86% 30.35 in 0.2 mi Calm Calm - N/A   Overcast
3:35 AM 24.8 °F - 21.2 °F 86% 30.34 in 1.0 mi Calm Calm - N/A   Overcast
3:55 AM 24.8 °F - 21.2 °F 86% 30.34 in 0.5 mi Calm Calm - N/A   Mostly Cloudy
4:15 AM 23.0 °F - 21.2 °F 93% 30.33 in 1.0 mi Calm Calm - N/A   Clear
4:35 AM 24.8 °F - 19.4 °F 80% 30.33 in 6.0 mi Calm Calm - N/A   Clear
4:55 AM 26.6 °F - 23.0 °F 86% 30.33 in 8.0 mi Calm Calm - N/A   Clear
5:15 AM 26.6 °F - 26.6 °F 100% 30.32 in 10.0 mi Calm Calm - N/A   Clear
5:35 AM 24.8 °F - 21.2 °F 86% 30.32 in 10.0 mi Calm Calm - N/A   Clear
5:55 AM 24.8 °F - 19.4 °F 80% 30.32 in 9.0 mi Calm Calm - N/A   Clear
6:15 AM 26.6 °F - 24.8 °F 93% 30.32 in 8.0 mi Calm Calm - N/A   Clear
6:35 AM 23.0 °F - 19.4 °F 86% 30.32 in 0.5 mi Calm Calm - N/A   Unknown
6:55 AM 24.8 °F - 21.2 °F 86% 30.32 in 0.2 mi Calm Calm - N/A   Mostly Cloudy
7:15 AM 24.8 °F - 21.2 °F 86% 30.32 in 0.5 mi Calm Calm - N/A   Mostly Cloudy
7:35 AM 23.0 °F - 19.4 °F 86% 30.32 in 7.0 mi Calm Calm - N/A   Clear
7:55 AM 23.0 °F - 19.4 °F 86% 30.32 in 3.0 mi Calm Calm - N/A   Clear
8:15 AM 24.8 °F - 19.4 °F 80% 30.32 in 9.0 mi Calm Calm - N/A   Clear
8:35 AM 24.8 °F - 21.2 °F 86% 30.32 in 4.0 mi Calm Calm - N/A   Clear
8:55 AM 26.6 °F - 24.8 °F 93% 30.33 in 10.0 mi Calm Calm - N/A   Clear
9:15 AM 26.6 °F - 24.8 °F 93% 30.33 in 10.0 mi Calm Calm - N/A   Clear
9:35 AM 28.4 °F - 28.4 °F 100% 30.34 in 10.0 mi Calm Calm - N/A   Clear
9:55 AM 30.2 °F - 28.4 °F 93% 30.33 in 10.0 mi Calm Calm - N/A   Clear
10:15 AM 32.0 °F - 30.2 °F 93% 30.33 in 10.0 mi Calm Calm - N/A   Clear
10:35 AM 33.8 °F - 32.0 °F 93% 30.33 in 10.0 mi Calm Calm - N/A   Clear
10:55 AM 35.6 °F - 33.8 °F 93% 30.32 in 10.0 mi Calm Calm - N/A   Clear
11:15 AM 37.4 °F - 35.6 °F 93% 30.32 in 10.0 mi Calm Calm - N/A   Clear
11:35 AM 39.2 °F - 33.8 °F 81% 30.31 in 10.0 mi Calm Calm - N/A   Clear
11:55 AM 41.0 °F - 32.0 °F 70% 30.30 in 10.0 mi Calm Calm - N/A   Clear
12:15 PM 42.8 °F - 30.2 °F 61% 30.30 in 10.0 mi Calm Calm - N/A   Clear
12:35 PM 42.8 °F - 30.2 °F 61% 30.29 in 10.0 mi Calm Calm - N/A   Clear
12:55 PM 44.6 °F - 30.2 °F 57% 30.28 in 10.0 mi Calm Calm - N/A   Clear
1:15 PM 44.6 °F - 30.2 °F 57% 30.28 in 10.0 mi Calm Calm - N/A   Clear
1:35 PM 44.6 °F - 28.4 °F 53% 30.27 in 10.0 mi Calm Calm - N/A   Clear
1:55 PM 46.4 °F - 26.6 °F 46% 30.27 in 10.0 mi Calm Calm - N/A   Clear
2:15 PM 44.6 °F - 30.2 °F 57% 30.27 in 10.0 mi Calm Calm - N/A   Clear
2:35 PM 44.6 °F - 32.0 °F 61% 30.27 in 10.0 mi Calm Calm - N/A   Clear
3:15 PM 46.4 °F 41.1 °F 24.8 °F 43% 30.26 in 10.0 mi SSE 11.5 mph - N/A   Clear
3:35 PM 44.6 °F 40.2 °F 24.8 °F 46% 30.26 in 10.0 mi SSE 8.1 mph - N/A   Clear
3:55 PM 42.8 °F 40.1 °F 24.8 °F 49% 30.27 in 10.0 mi SSE 4.6 mph - N/A   Clear
4:15 PM 42.8 °F 40.1 °F 23.0 °F 46% 30.27 in 10.0 mi SSE 4.6 mph - N/A   Clear
4:35 PM 41.0 °F 39.0 °F 24.8 °F 53% 30.27 in 10.0 mi ESE 3.5 mph - N/A   Clear
4:55 PM 37.4 °F - 24.8 °F 60% 30.27 in 10.0 mi Calm Calm - N/A   Clear
5:15 PM 35.6 °F - 24.8 °F 65% 30.27 in 10.0 mi Calm Calm - N/A   Clear
5:55 PM 30.2 °F - 23.0 °F 75% 30.27 in 10.0 mi Calm Calm - N/A   Clear
6:15 PM 30.2 °F 25.4 °F 24.8 °F 80% 30.26 in 10.0 mi NNE 4.6 mph - N/A   Clear
6:35 PM 28.4 °F 24.6 °F 24.8 °F 86% 30.25 in 10.0 mi NNE 3.5 mph - N/A   Clear
6:55 PM 30.2 °F - 28.4 °F 93% 30.25 in 10.0 mi Calm Calm - N/A   Clear
7:15 PM 28.4 °F - 24.8 °F 86% 30.25 in 10.0 mi Calm Calm - N/A   Clear
7:35 PM 28.4 °F - 24.8 °F 86% 30.25 in 10.0 mi Calm Calm - N/A   Clear
7:55 PM 28.4 °F - 26.6 °F 93% 30.25 in 10.0 mi Calm Calm - N/A   Clear
8:15 PM 28.4 °F 24.6 °F 26.6 °F 93% 30.25 in 10.0 mi NNE 3.5 mph - N/A   Clear
8:35 PM 26.6 °F 21.2 °F 21.2 °F 80% 30.24 in 10.0 mi NNE 4.6 mph - N/A   Clear
8:55 PM 24.8 °F 19.1 °F 21.2 °F 86% 30.24 in 10.0 mi North 4.6 mph - N/A   Clear
9:15 PM 26.6 °F 21.2 °F 24.8 °F 93% 30.24 in 3.0 mi North 4.6 mph - N/A   Clear
9:35 PM 28.4 °F - 28.4 °F 100% 30.24 in 0.8 mi Calm Calm - N/A   Unknown
9:55 PM 24.8 °F - 21.2 °F 86% 30.24 in 0.5 mi Calm Calm - N/A   Mostly Cloudy
10:15 PM 24.8 °F 20.5 °F 19.4 °F 80% 30.24 in 8.0 mi NNE 3.5 mph - N/A   Partly Cloudy
10:35 PM 24.8 °F - 23.0 °F 93% 30.23 in 10.0 mi Calm Calm - N/A   Clear
10:55 PM 26.6 °F - 24.8 °F 93% 30.23 in 3.0 mi Calm Calm - N/A   Clear
11:15 PM 24.8 °F - 23.0 °F 93% 30.22 in 0.2 mi Calm Calm - N/A   Mostly Cloudy
11:35 PM 24.8 °F - 23.0 °F 93% 30.22 in 0.2 mi Calm Calm - N/A   Overcast
11:55 PM 24.8 °F - 21.2 °F 86% 30.22 in 0.2 mi Calm Calm - N/A   Overcast